C6042 KPIE-

Flight info

Callsign C6042
Flight time N/A
Altitude VFR
Route
Aircraft H60/M-DOV/C

Departure

Time 2026-04-16 21:35
Airport St. Petersburg Clearwater International Airport (KPIE)

Arrival

Time N/A
Airport -
Time Latitude Longitude Altitude Speed Heading
2026-04-16 21:28 27.91287 -82.69442 22 ft 0 kts 129°
2026-04-16 21:29 27.91278 -82.69429 21 ft 6 kts 128°
2026-04-16 21:29 27.91261 -82.69405 20 ft 0 kts 130°
2026-04-16 21:30 27.91250 -82.69390 21 ft 7 kts 129°
2026-04-16 21:30 27.91212 -82.69354 20 ft 8 kts 198°
2026-04-16 21:30 27.91175 -82.69389 20 ft 6 kts 222°
2026-04-16 21:30 27.91154 -82.69410 22 ft 7 kts 221°
2026-04-16 21:31 27.91100 -82.69465 20 ft 10 kts 221°
2026-04-16 21:31 27.91042 -82.69521 20 ft 11 kts 220°
2026-04-16 21:31 27.90996 -82.69540 20 ft 5 kts 178°
2026-04-16 21:31 27.90978 -82.69539 20 ft 3 kts 178°
2026-04-16 21:32 27.90973 -82.69539 20 ft 0 kts 178°
2026-04-16 21:32 27.90972 -82.69539 27 ft 1 kts 176°
2026-04-16 21:32 27.90971 -82.69540 26 ft 1 kts 175°
2026-04-16 21:33 27.90965 -82.69536 27 ft 1 kts 244°
2026-04-16 21:33 27.90963 -82.69535 28 ft 0 kts 274°
2026-04-16 21:33 27.90963 -82.69536 28 ft 0 kts 274°
2026-04-16 21:33 27.90963 -82.69537 27 ft 0 kts 273°
2026-04-16 21:34 27.90966 -82.69552 48 ft 14 kts 277°
2026-04-16 21:34 27.91022 -82.69789 213 ft 55 kts 287°
2026-04-16 21:34 27.91245 -82.70353 276 ft 93 kts 299°
2026-04-16 21:34 27.91478 -82.70774 326 ft 94 kts 298°
2026-04-16 21:35 27.91619 -82.71688 434 ft 101 kts 272°
2026-04-16 21:35 27.91645 -82.72510 590 ft 110 kts 270°
2026-04-16 21:35 27.91682 -82.73401 655 ft 115 kts 270°
2026-04-16 21:35 27.91697 -82.74004 660 ft 116 kts 270°
2026-04-16 21:36 27.91699 -82.75149 720 ft 112 kts 267°
2026-04-16 21:36 27.91701 -82.75953 721 ft 94 kts 270°
2026-04-16 21:36 27.91720 -82.76660 762 ft 91 kts 271°
2026-04-16 21:36 27.91728 -82.77144 784 ft 95 kts 270°
2026-04-16 21:37 27.91717 -82.78053 833 ft 97 kts 268°
2026-04-16 21:37 27.91701 -82.78820 795 ft 96 kts 271°
2026-04-16 21:37 27.91693 -82.79498 806 ft 94 kts 271°
2026-04-16 21:37 27.91690 -82.79979 829 ft 90 kts 271°
2026-04-16 21:38 27.91689 -82.80861 904 ft 90 kts 269°
2026-04-16 21:38 27.91707 -82.81562 767 ft 87 kts 269°
2026-04-16 21:38 27.91741 -82.82234 649 ft 86 kts 268°
2026-04-16 21:38 27.91778 -82.82677 631 ft 85 kts 266°
2026-04-16 21:39 27.91847 -82.83539 552 ft 90 kts 261°
2026-04-16 21:39 27.91859 -82.84204 508 ft 76 kts 289°
2026-04-16 21:39 27.92078 -82.84671 505 ft 71 kts 333°
2026-04-16 21:39 27.92426 -82.84662 422 ft 90 kts 11°
2026-04-16 21:40 27.93259 -82.84330 451 ft 116 kts 12°
2026-04-16 21:40 27.94071 -82.84020 381 ft 128 kts 13°
2026-04-16 21:40 27.94919 -82.83674 335 ft 128 kts 12°
2026-04-16 21:40 27.95464 -82.83486 305 ft 117 kts
2026-04-16 21:41 27.96326 -82.83399 266 ft 85 kts
2026-04-16 21:41 27.96872 -82.83377 322 ft 75 kts
2026-04-16 21:41 27.97455 -82.83350 270 ft 88 kts
2026-04-16 21:41 27.97871 -82.83329 252 ft 89 kts
2026-04-16 21:42 27.98570 -82.83277 261 ft 74 kts
2026-04-16 21:42 27.98905 -82.83244 264 ft 69 kts
2026-04-16 21:42 27.99359 -82.83191 257 ft 66 kts
2026-04-16 21:42 27.99819 -82.83133 245 ft 69 kts 350°
2026-04-16 21:43 28.00053 -82.83467 191 ft 66 kts 261°
2026-04-16 21:43 27.99669 -82.83637 162 ft 71 kts 150°
2026-04-16 21:43 27.99299 -82.83252 163 ft 75 kts 149°
2026-04-16 21:43 27.98768 -82.83183 159 ft 79 kts 186°
2026-04-16 21:44 27.98250 -82.83225 180 ft 85 kts 192°
2026-04-16 21:44 27.97643 -82.83275 223 ft 88 kts 189°
2026-04-16 21:44 27.97027 -82.83353 269 ft 94 kts 191°
2026-04-16 21:44 27.96354 -82.83430 245 ft 97 kts 193°
2026-04-16 21:45 27.95730 -82.83545 248 ft 98 kts 196°
2026-04-16 21:45 27.95068 -82.83707 254 ft 96 kts 200°
2026-04-16 21:45 27.94498 -82.83886 253 ft 93 kts 200°
2026-04-16 21:45 27.93876 -82.84072 257 ft 92 kts 200°
2026-04-16 21:46 27.93319 -82.84244 255 ft 91 kts 200°
2026-04-16 21:46 27.92713 -82.84454 256 ft 92 kts 198°
2026-04-16 21:46 27.92081 -82.84598 254 ft 93 kts 198°
2026-04-16 21:46 27.91448 -82.84767 255 ft 92 kts 198°
2026-04-16 21:47 27.90871 -82.84896 256 ft 93 kts 197°
2026-04-16 21:47 27.90231 -82.85044 258 ft 93 kts 196°
2026-04-16 21:47 27.89588 -82.85161 257 ft 94 kts 193°
2026-04-16 21:47 27.88945 -82.85255 256 ft 95 kts 193°
2026-04-16 21:48 27.88344 -82.85296 253 ft 96 kts 180°
2026-04-16 21:48 27.87721 -82.85410 249 ft 86 kts 230°
2026-04-16 21:48 27.87585 -82.86005 245 ft 83 kts 312°
2026-04-16 21:48 27.88111 -82.86141 246 ft 94 kts 32°
2026-04-16 21:49 27.88554 -82.85639 253 ft 103 kts 44°
2026-04-16 21:49 27.89167 -82.85268 253 ft 105 kts
2026-04-16 21:49 27.89899 -82.85131 259 ft 107 kts
2026-04-16 21:49 27.90642 -82.85000 254 ft 109 kts
2026-04-16 21:50 27.91318 -82.84856 256 ft 109 kts
2026-04-16 21:50 27.92069 -82.84714 255 ft 110 kts
2026-04-16 21:50 27.92823 -82.84541 254 ft 112 kts
2026-04-16 21:50 27.93579 -82.84300 260 ft 115 kts 18°
2026-04-16 21:51 27.94262 -82.83975 258 ft 118 kts 19°
2026-04-16 21:51 27.95021 -82.83631 259 ft 116 kts 17°
2026-04-16 21:51 27.95741 -82.83677 263 ft 99 kts 324°
2026-04-16 21:51 27.96076 -82.84286 271 ft 91 kts 281°
2026-04-16 21:52 27.96218 -82.84911 265 ft 89 kts 280°
2026-04-16 21:52 27.96474 -82.85539 278 ft 95 kts 325°
2026-04-16 21:52 27.97187 -82.85589 131 ft 107 kts
2026-04-16 21:52 27.97593 -82.84995 147 ft 108 kts 92°
2026-04-16 21:53 27.97257 -82.84409 95 ft 100 kts 172°
2026-04-16 21:53 27.96952 -82.84750 70 ft 64 kts 315°
2026-04-16 21:53 27.97234 -82.84868 64 ft 33 kts 329°
2026-04-16 21:53 27.97336 -82.84871 27 ft 1 kts 309°
2026-04-16 21:54 27.97306 -82.84882 30 ft 10 kts 315°
2026-04-16 21:54 27.97291 -82.84906 68 ft 3 kts 307°
2026-04-16 21:54 27.97284 -82.84927 100 ft 8 kts 306°
2026-04-16 21:54 27.97340 -82.84980 133 ft 5 kts 310°
2026-04-16 21:55 27.97344 -82.84966 87 ft 1 kts 308°
2026-04-16 21:55 27.97345 -82.84959 100 ft 8 kts 308°
2026-04-16 21:55 27.97306 -82.84897 107 ft 5 kts 308°
2026-04-16 21:55 27.97322 -82.84857 104 ft 9 kts 308°
2026-04-16 21:56 27.97343 -82.84876 107 ft 10 kts 308°
2026-04-16 21:56 27.97361 -82.84877 51 ft 10 kts 308°
2026-04-16 21:56 27.97374 -82.84895 56 ft 0 kts 308°
2026-04-16 21:56 27.97393 -82.84894 60 ft 0 kts 308°
2026-04-16 21:57 27.97399 -82.84903 63 ft 0 kts 308°
2026-04-16 21:57 27.97406 -82.84903 57 ft 1 kts 308°
2026-04-16 21:57 27.97411 -82.84901 61 ft 0 kts 308°
2026-04-16 21:57 27.97413 -82.84898 63 ft 1 kts 308°
2026-04-16 21:58 27.97419 -82.84893 59 ft 0 kts 308°
2026-04-16 21:58 27.97418 -82.84893 62 ft 0 kts 308°
2026-04-16 21:58 27.97418 -82.84894 37 ft 2 kts 308°
2026-04-16 21:58 27.97418 -82.84893 40 ft 1 kts 308°
2026-04-16 21:59 27.97414 -82.84896 53 ft 6 kts 308°
2026-04-16 21:59 27.97394 -82.84913 111 ft 3 kts 307°
2026-04-16 21:59 27.97505 -82.85063 194 ft 48 kts 298°
2026-04-16 21:59 27.97304 -82.85354 209 ft 66 kts 162°
2026-04-16 22:00 27.97116 -82.85022 101 ft 50 kts 36°
2026-04-16 22:00 27.97335 -82.84885 44 ft 20 kts 334°
2026-04-16 22:00 27.97373 -82.84904 26 ft 2 kts 302°
2026-04-16 22:00 27.97326 -82.84920 52 ft 4 kts 303°
2026-04-16 22:01 27.97343 -82.84916 55 ft 9 kts 295°
2026-04-16 22:01 27.97387 -82.84898 29 ft 1 kts 291°
2026-04-16 22:01 27.97386 -82.84900 48 ft 1 kts 295°
2026-04-16 22:01 27.97425 -82.84979 98 ft 31 kts 309°
2026-04-16 22:02 27.97591 -82.85408 143 ft 92 kts 299°
2026-04-16 22:02 27.98046 -82.86039 169 ft 114 kts 290°
2026-04-16 22:02 27.97688 -82.86614 320 ft 109 kts 174°
2026-04-16 22:02 27.97279 -82.85968 296 ft 108 kts 75°
2026-04-16 22:03 27.97398 -82.85228 303 ft 107 kts 76°
2026-04-16 22:03 27.97756 -82.84580 299 ft 91 kts 10°
2026-04-16 22:03 27.98294 -82.84816 449 ft 100 kts 297°
2026-04-16 22:03 27.98433 -82.85619 358 ft 105 kts 274°
2026-04-16 22:04 27.98240 -82.86230 265 ft 94 kts 207°
2026-04-16 22:04 27.97650 -82.85912 182 ft 102 kts 109°
2026-04-16 22:04 27.97513 -82.85111 86 ft 102 kts 100°
2026-04-16 22:04 27.97255 -82.84468 91 ft 82 kts 122°
2026-04-16 22:05 27.96949 -82.84004 271 ft 86 kts 122°
2026-04-16 22:05 27.96647 -82.83381 412 ft 99 kts 120°
2026-04-16 22:05 27.96272 -82.82680 491 ft 108 kts 122°
2026-04-16 22:05 27.95834 -82.81967 571 ft 113 kts 128°
2026-04-16 22:06 27.95354 -82.81359 627 ft 115 kts 133°
2026-04-16 22:06 27.94162 -82.80192 664 ft 119 kts 139°
2026-04-16 22:06 27.93496 -82.79636 705 ft 119 kts 139°
2026-04-16 22:07 27.93034 -82.78971 679 ft 115 kts 110°
2026-04-16 22:07 27.92671 -82.78181 662 ft 115 kts 117°
2026-04-16 22:07 27.92208 -82.77431 613 ft 114 kts 115°
2026-04-16 22:07 27.91872 -82.76654 615 ft 108 kts 103°
2026-04-16 22:08 27.91701 -82.75885 579 ft 112 kts 96°
2026-04-16 22:08 27.91641 -82.75000 532 ft 109 kts 90°
2026-04-16 22:08 27.91619 -82.74160 576 ft 107 kts 88°
2026-04-16 22:08 27.91616 -82.73296 522 ft 111 kts 88°
2026-04-16 22:09 27.91620 -82.72508 468 ft 109 kts 86°
2026-04-16 22:09 27.91614 -82.71670 415 ft 103 kts 91°
2026-04-16 22:09 27.91502 -82.70916 355 ft 90 kts 116°
2026-04-16 22:09 27.91240 -82.70419 313 ft 77 kts 133°
2026-04-16 22:10 27.90905 -82.70043 247 ft 72 kts 128°
2026-04-16 22:10 27.90827 -82.69656 120 ft 42 kts 44°
2026-04-16 22:10 27.90982 -82.69555 55 ft 14 kts 18°
2026-04-16 22:10 27.91039 -82.69524 29 ft 5 kts 42°
2026-04-16 22:11 27.91058 -82.69505 21 ft 4 kts 41°
2026-04-16 22:11 27.91086 -82.69478 21 ft 6 kts 40°
2026-04-16 22:11 27.91125 -82.69439 20 ft 9 kts 42°
2026-04-16 22:11 27.91166 -82.69397 20 ft 7 kts 41°
2026-04-16 22:12 27.91198 -82.69366 20 ft 6 kts 40°
2026-04-16 22:12 27.91241 -82.69375 20 ft 9 kts 310°
2026-04-16 22:12 27.91275 -82.69431 20 ft 8 kts 289°
2026-04-16 22:12 27.91288 -82.69477 20 ft 5 kts 296°
2026-04-16 22:13 27.91308 -82.69484 20 ft 5 kts 103°
2026-04-16 22:13 27.91303 -82.69475 20 ft 0 kts 132°